Starlink 2124

decayed
NORAD ID: 47402 Int'l Des: 2021-005 Owner: SPXS Country: US Constellation: starlink
LEOCIRCULAR

关于 Starlink 2124

正在加载描述...

高度历史

Altitude vs Time

uPlot chart will show altitude changes over time

两行轨道根数

1 47402U 21005BF 25013.23215516 .16823427 12531-4 58872-3 0 9993
2 47402 53.0318 95.0875 0003093 328.6102 136.8045 16.44464337221037
Epoch: Jan 13, 2025 • Age: 8120 hours

当前状态

Position data unavailable
发射日期 Jan 20, 2021
运行时间 4.9 years
衰减日期 Jan 13, 2025
类型 internet

技术详情

分类 Payload
质量 260.00 kg
干质量 248.00 kg
总质量 260.00 kg
长度 0.20 m
直径 2.80 m
跨度 9.00 m
形状 Box + pan
制造商 SPXS
平台类型 Starlink
阶段状态 Unknown Transfer Status
所有者/国家 SPXS/US

大型星座

Loading constellations...